When you browse on this site, cookies collect data to enhance your experience and personalize the content and advertising you see.
Visit our Privacy Policy to learn more. By continuing to use the site, you agree to this use of cookies and data.
  • In Hungary
  • List of Countries
  • For 7 days
  • Water Temperature
  • Weather Map
  • News
  • Weather Widgets
  • user-avatar
    Login

    Hourly Weather Kapustyntsi

    Today, 16 December, Monday

    Time Temperature Precipitation Wind Pressure Humidity
    00:00 +3°C° 0 mm 5 mps 743 mmHg 69%
    01:00 +5°C° 0 mm 5 mps 743 mmHg 66%
    02:00 +5°C° 0 mm 5 mps 743 mmHg 62%
    03:00 +5°C° 0 mm 5 mps 743 mmHg 63%
    04:00 +5°C° 0 mm 5 mps 743 mmHg 63%
    05:00 +5°C° 0 mm 5 mps 743 mmHg 63%
    06:00 +5°C° 0 mm 4 mps 743 mmHg 63%
    07:00 +5°C° 0 mm 4 mps 744 mmHg 64%
    08:00 +5°C° 0 mm 4 mps 744 mmHg 64%
    09:00 +6°C° 0 mm 4 mps 744 mmHg 63%
    10:00 +6°C° 0 mm 4 mps 745 mmHg 62%
    11:00 +7°C° 0 mm 4 mps 745 mmHg 60%
    12:00 +8°C° 0 mm 4 mps 745 mmHg 61%
    13:00 +8°C° 0 mm 4 mps 745 mmHg 61%
    14:00 +8°C° 0 mm 4 mps 745 mmHg 61%
    15:00 +9°C° 0 mm 3 mps 746 mmHg 66%
    16:00 +8°C° 0 mm 3 mps 746 mmHg 70%
    17:00 +7°C° 0 mm 2 mps 746 mmHg 75%
    18:00 +7°C° 0 mm 2 mps 746 mmHg 76%
    19:00 +7°C° 0 mm 2 mps 746 mmHg 77%
    20:00 +7°C° 0 mm 1 mps 747 mmHg 78%
    21:00 +6°C° 0 mm 2 mps 747 mmHg 79%
    22:00 +6°C° 0 mm 2 mps 747 mmHg 79%
    23:00 +6°C° 0 mm 2 mps 747 mmHg 79%

    Tomorrow, 17 December, Tuesday

    Time Temperature Precipitation Wind Pressure Humidity
    00:00 +6°C° 0 mm 2 mps 747 mmHg 79%
    01:00 +5°C° 0 mm 2 mps 747 mmHg 78%
    02:00 +4°C° 0 mm 3 mps 747 mmHg 78%
    03:00 +4°C° 0 mm 3 mps 746 mmHg 78%
    04:00 +4°C° 0 mm 3 mps 746 mmHg 77%
    05:00 +4°C° 0 mm 3 mps 746 mmHg 77%
    06:00 +3°C° 0 mm 3 mps 746 mmHg 76%
    07:00 +3°C° 0 mm 3 mps 746 mmHg 75%
    08:00 +3°C° 0 mm 3 mps 746 mmHg 74%
    09:00 +4°C° 0 mm 4 mps 746 mmHg 70%
    10:00 +5°C° 0 mm 4 mps 746 mmHg 66%
    11:00 +6°C° 0 mm 4 mps 746 mmHg 62%
    12:00 +7°C° 0 mm 4 mps 746 mmHg 61%
    13:00 +8°C° 0 mm 4 mps 745 mmHg 61%
    14:00 +9°C° 0 mm 3 mps 745 mmHg 60%
    15:00 +8°C° 0 mm 3 mps 745 mmHg 65%
    16:00 +7°C° 0 mm 3 mps 745 mmHg 69%
    17:00 +5°C° 0 mm 3 mps 745 mmHg 74%
    18:00 +5°C° 0 mm 3 mps 745 mmHg 74%
    19:00 +4°C° 0 mm 3 mps 745 mmHg 74%
    20:00 +4°C° 0 mm 3 mps 745 mmHg 75%
    21:00 +4°C° 0 mm 3 mps 745 mmHg 75%
    22:00 +4°C° 0 mm 3 mps 745 mmHg 74%
    23:00 +4°C° 0 mm 3 mps 745 mmHg 74%

    Day after tomorrow, 18 December, Wednesday

    Time Temperature Precipitation Wind Pressure Humidity
    00:00 +4°C° 0 mm 3 mps 745 mmHg 74%
    01:00 +4°C° 0 mm 3 mps 745 mmHg 73%
    02:00 +4°C° 0 mm 3 mps 745 mmHg 72%
    03:00 +4°C° 0 mm 3 mps 745 mmHg 72%
    04:00 +4°C° 0 mm 3 mps 744 mmHg 72%
    05:00 +4°C° 0 mm 3 mps 744 mmHg 72%
    06:00 +4°C° 0 mm 3 mps 744 mmHg 71%
    07:00 +4°C° 0 mm 3 mps 744 mmHg 70%
    08:00 +4°C° 0 mm 3 mps 744 mmHg 69%
    09:00 +5°C° 0 mm 3 mps 744 mmHg 64%
    10:00 +8°C° 0 mm 3 mps 744 mmHg 59%
    11:00 +9°C° 0 mm 3 mps 745 mmHg 54%
    12:00 +10°C° 0 mm 3 mps 744 mmHg 52%
    13:00 +10°C° 0 mm 2 mps 744 mmHg 51%
    14:00 +12°C° 0 mm 2 mps 744 mmHg 50%
    15:00 +10°C° 0 mm 2 mps 744 mmHg 52%
    16:00 +9°C° 0 mm 2 mps 744 mmHg 55%
    17:00 +8°C° 0 mm 3 mps 744 mmHg 58%
    18:00 +8°C° 0 mm 2 mps 744 mmHg 58%
    19:00 +8°C° 0 mm 2 mps 744 mmHg 58%
    20:00 +8°C° 0 mm 2 mps 744 mmHg 58%
    21:00 +7°C° 0 mm 2 mps 744 mmHg 58%
    22:00 +7°C° 0 mm 2 mps 744 mmHg 58%
    23:00 +7°C° 0 mm 2 mps 745 mmHg 58%

    19 December, Thursday

    Time Temperature Precipitation Wind Pressure Humidity
    00:00 +7°C° 0 mm 2 mps 744 mmHg 58%
    01:00 +7°C° 0 mm 2 mps 744 mmHg 59%
    02:00 +6°C° 0 mm 2 mps 744 mmHg 59%
    03:00 +6°C° 0 mm 2 mps 744 mmHg 59%
    04:00 +6°C° 0 mm 2 mps 744 mmHg 59%
    05:00 +6°C° 0 mm 2 mps 743 mmHg 59%
    06:00 +7°C° 0 mm 1 mps 743 mmHg 59%
    07:00 +6°C° 0 mm 1 mps 743 mmHg 60%
    08:00 +6°C° 0 mm 1 mps 743 mmHg 60%
    09:00 +7°C° 0 mm 1 mps 743 mmHg 58%
    10:00 +8°C° 0 mm 1 mps 743 mmHg 55%
    11:00 +9°C° 0 mm 1 mps 743 mmHg 53%
    12:00 +10°C° 0 mm 1 mps 743 mmHg 52%
    13:00 +10°C° 0 mm 1 mps 742 mmHg 50%
    14:00 +11°C° 0 mm 1 mps 742 mmHg 49%
    15:00 +10°C° 0 mm 1 mps 742 mmHg 51%
    16:00 +9°C° 0 mm 1 mps 742 mmHg 53%
    17:00 +9°C° 0 mm 1 mps 741 mmHg 55%
    18:00 +9°C° 0 mm 1 mps 741 mmHg 56%
    19:00 +8°C° 0 mm 1 mps 741 mmHg 57%
    20:00 +8°C° 0 mm 1 mps 741 mmHg 59%
    21:00 +8°C° 0 mm 1 mps 741 mmHg 60%
    22:00 +8°C° 0 mm 1 mps 741 mmHg 61%
    23:00 +8°C° 0 mm 1 mps 741 mmHg 61%

    20 December, Friday

    Time Temperature Precipitation Wind Pressure Humidity
    00:00 +8°C° 0 mm 1 mps 740 mmHg 62%
    01:00 +8°C° 0 mm 1 mps 740 mmHg 62%
    02:00 +7°C° 0 mm 2 mps 740 mmHg 63%
    03:00 +7°C° 0 mm 2 mps 739 mmHg 63%
    04:00 +7°C° 0 mm 2 mps 739 mmHg 64%
    05:00 +7°C° 0 mm 2 mps 739 mmHg 65%
    06:00 +8°C° 0 mm 1 mps 739 mmHg 67%
    07:00 +8°C° 0 mm 1 mps 739 mmHg 70%
    08:00 +8°C° 0 mm 1 mps 739 mmHg 72%
    09:00 +9°C° 0 mm 1 mps 739 mmHg 71%
    10:00 +9°C° 0 mm 1 mps 739 mmHg 69%
    11:00 +9°C° 0 mm 0 mps 739 mmHg 67%
    12:00 +9°C° 0 mm 0 mps 738 mmHg 66%
    13:00 +9°C° 0 mm 0 mps 738 mmHg 66%
    14:00 +10°C° 0 mm 0 mps 738 mmHg 65%
    15:00 +9°C° 0 mm 0 mps 738 mmHg 69%
    16:00 +8°C° 0 mm 0 mps 738 mmHg 72%
    17:00 +7°C° 0 mm 0 mps 738 mmHg 75%
    18:00 +7°C° 0 mm 0 mps 738 mmHg 76%
    19:00 +7°C° 0 mm 1 mps 738 mmHg 77%
    20:00 +7°C° 0 mm 1 mps 738 mmHg 78%
    21:00 +6°C° 0 mm 2 mps 738 mmHg 78%
    22:00 +6°C° 0 mm 2 mps 738 mmHg 79%
    23:00 +5°C° 0 mm 2 mps 738 mmHg 79%

    21 December, Saturday

    Time Temperature Precipitation Wind Pressure Humidity
    00:00 +5°C° 0 mm 2 mps 738 mmHg 80%
    01:00 +5°C° 0 mm 2 mps 738 mmHg 80%
    02:00 +5°C° 0 mm 2 mps 738 mmHg 81%
    03:00 +4°C° 0 mm 3 mps 738 mmHg 82%
    04:00 +3°C° 0 mm 3 mps 737 mmHg 83%
    05:00 +3°C° 0 mm 3 mps 737 mmHg 84%
    06:00 +3°C° 0 mm 4 mps 737 mmHg 85%
    07:00 +3°C° 0 mm 4 mps 738 mmHg 86%
    08:00 +1°C° 0 mm 4 mps 738 mmHg 87%
    09:00 +3°C° 0 mm 4 mps 738 mmHg 84%
    10:00 +4°C° 0 mm 4 mps 737 mmHg 80%
    11:00 +5°C° 0 mm 5 mps 737 mmHg 77%
    12:00 +5°C° 0 mm 5 mps 737 mmHg 76%
    13:00 +6°C° 0 mm 5 mps 736 mmHg 74%
    14:00 +5°C° 0 mm 6 mps 736 mmHg 72%
    15:00 +6°C° 0 mm 5 mps 736 mmHg 76%
    16:00 +5°C° 0 mm 5 mps 735 mmHg 79%
    17:00 +5°C° 0 mm 5 mps 735 mmHg 82%
    18:00 +4°C° 0 mm 6 mps 735 mmHg 83%
    19:00 +4°C° 0 mm 6 mps 734 mmHg 84%
    20:00 +5°C° 0 mm 6 mps 734 mmHg 85%
    21:00 +6°C° 0 mm 5 mps 734 mmHg 87%
    22:00 +6°C° 0 mm 5 mps 733 mmHg 90%
    23:00 +6°C° 0 mm 5 mps 733 mmHg 93%
    Show more